DLH221 EGLL-EDDF

Flight info

Callsign DLH221
Flight time N/A
Altitude 35000
Route BPK Q295 MATCH DCT REDFA DCT TACHA DCT NOLRU DCT DIXAT
Aircraft A359/H-SDE2E3GHIJ3J4J5LM1ORWXY/LB1D1

Departure

Time 2026-05-06 14:10
Airport London Heathrow Airport (EGLL)

Arrival

Time N/A
Airport Frankfurt Main Airport (EDDF)
Time Latitude Longitude Altitude Speed Heading
2026-05-06 13:58 51.46906 -0.46409 95 ft 0 kts 55°
2026-05-06 14:03 51.46903 -0.46416 95 ft 2 kts 56°
2026-05-06 14:03 51.46894 -0.46439 96 ft 2 kts 59°
2026-05-06 14:03 51.46887 -0.46462 94 ft 2 kts 64°
2026-05-06 14:03 51.46880 -0.46486 94 ft 2 kts 73°
2026-05-06 14:04 51.46877 -0.46511 92 ft 2 kts 91°
2026-05-06 14:04 51.46878 -0.46529 92 ft 2 kts 114°
2026-05-06 14:04 51.46887 -0.46546 92 ft 1 kts 144°
2026-05-06 14:04 51.46888 -0.46548 92 ft 0 kts 144°
2026-05-06 14:05 51.46867 -0.46525 96 ft 10 kts 146°
2026-05-06 14:06 51.46797 -0.46454 96 ft 13 kts 158°
2026-05-06 14:06 51.46757 -0.46489 94 ft 7 kts 246°
2026-05-06 14:06 51.46748 -0.46589 96 ft 11 kts 268°
2026-05-06 14:06 51.46747 -0.46732 96 ft 17 kts 270°
2026-05-06 14:07 51.46747 -0.46979 96 ft 24 kts 270°
2026-05-06 14:07 51.46746 -0.47256 96 ft 26 kts 268°
2026-05-06 14:07 51.46745 -0.47554 92 ft 28 kts 270°
2026-05-06 14:07 51.46745 -0.47870 96 ft 28 kts 269°
2026-05-06 14:08 51.46742 -0.48153 92 ft 21 kts 260°
2026-05-06 14:08 51.46643 -0.48213 93 ft 17 kts 176°
2026-05-06 14:08 51.46523 -0.48216 94 ft 18 kts 182°
2026-05-06 14:08 51.46469 -0.48193 99 ft 2 kts 99°
2026-05-06 14:09 51.46474 -0.48160 98 ft 6 kts 78°
2026-05-06 14:09 51.46477 -0.48128 96 ft 0 kts 86°
2026-05-06 14:09 51.46477 -0.48124 96 ft 1 kts 86°
2026-05-06 14:09 51.46479 -0.48057 93 ft 28 kts 88°
2026-05-06 14:10 51.46482 -0.47309 95 ft 103 kts 90°
2026-05-06 14:10 51.46488 -0.45840 106 ft 161 kts 89°
2026-05-06 14:10 51.46465 -0.43897 585 ft 183 kts 90°
2026-05-06 14:10 51.46735 -0.41974 1528 ft 170 kts 52°
2026-05-06 14:11 51.47443 -0.40581 2661 ft 155 kts 45°
2026-05-06 14:11 51.48169 -0.39312 3453 ft 153 kts 44°
2026-05-06 14:11 51.48884 -0.38043 4109 ft 153 kts 44°
2026-05-06 14:11 51.49586 -0.36764 4762 ft 155 kts 45°
2026-05-06 14:12 51.50311 -0.35425 5271 ft 166 kts 46°
2026-05-06 14:12 51.51124 -0.33907 5588 ft 192 kts 46°
2026-05-06 14:12 51.51863 -0.31923 5873 ft 224 kts 63°
2026-05-06 14:12 51.52434 -0.29464 6277 ft 250 kts 68°
2026-05-06 14:13 51.53000 -0.26755 6942 ft 261 kts 69°
2026-05-06 14:13 51.53593 -0.23967 7764 ft 268 kts 67°
2026-05-06 14:13 51.54555 -0.21415 8567 ft 270 kts 41°
2026-05-06 14:13 51.56154 -0.19856 9474 ft 271 kts 22°
2026-05-06 14:14 51.57913 -0.18666 10366 ft 279 kts 20°
2026-05-06 14:14 51.59811 -0.17587 10818 ft 300 kts 14°
2026-05-06 14:14 51.61887 -0.16646 11250 ft 321 kts 14°
2026-05-06 14:14 51.64089 -0.15659 11912 ft 332 kts 13°
2026-05-06 14:15 51.66336 -0.14641 12725 ft 340 kts 13°
2026-05-06 14:15 51.68613 -0.13604 13496 ft 348 kts 13°
2026-05-06 14:15 51.70900 -0.12444 14215 ft 356 kts 19°
2026-05-06 14:15 51.73071 -0.10404 14909 ft 366 kts 38°
2026-05-06 14:16 51.74720 -0.07246 15608 ft 376 kts 58°
2026-05-06 14:16 51.75654 -0.03278 16311 ft 383 kts 75°
2026-05-06 14:16 51.76181 0.00977 17065 ft 388 kts 80°
2026-05-06 14:16 51.76542 0.05335 17776 ft 395 kts 83°
2026-05-06 14:17 51.76837 0.09749 18624 ft 397 kts 84°
2026-05-06 14:17 51.77128 0.14220 19336 ft 402 kts 83°
2026-05-06 14:17 51.77441 0.18724 20019 ft 407 kts 83°
2026-05-06 14:17 51.77801 0.23277 20790 ft 409 kts 81°
2026-05-06 14:18 51.78375 0.27824 21421 ft 415 kts 77°
2026-05-06 14:18 51.79046 0.32382 22131 ft 419 kts 76°
2026-05-06 14:18 51.79770 0.36976 22764 ft 425 kts 75°
2026-05-06 14:18 51.80520 0.41605 23471 ft 428 kts 75°
2026-05-06 14:19 51.81273 0.46232 24022 ft 434 kts 75°
2026-05-06 14:19 51.82040 0.50982 24538 ft 438 kts 75°
2026-05-06 14:19 51.82802 0.55749 25185 ft 440 kts 75°
2026-05-06 14:19 51.83565 0.60570 25750 ft 444 kts 76°
2026-05-06 14:20 51.84327 0.65431 26351 ft 446 kts 76°
2026-05-06 14:20 51.85090 0.70331 26851 ft 451 kts 76°
2026-05-06 14:20 51.85855 0.75259 27471 ft 453 kts 76°
2026-05-06 14:20 51.86625 0.80226 27979 ft 458 kts 76°
2026-05-06 14:21 51.87398 0.85227 28586 ft 460 kts 76°
2026-05-06 14:21 51.88176 0.90265 29076 ft 464 kts 76°
2026-05-06 14:21 51.88931 0.95158 29619 ft 466 kts 76°
2026-05-06 14:21 51.89711 1.00216 30095 ft 470 kts 76°
2026-05-06 14:22 51.90501 1.05366 30571 ft 471 kts 76°
2026-05-06 14:22 51.91294 1.10545 30990 ft 474 kts 76°
2026-05-06 14:22 51.92086 1.15748 31392 ft 477 kts 76°
2026-05-06 14:22 51.92881 1.20984 31782 ft 480 kts 76°
2026-05-06 14:23 51.93676 1.26237 32171 ft 483 kts 76°
2026-05-06 14:23 51.94473 1.31547 32564 ft 485 kts 76°
2026-05-06 14:23 51.95271 1.36885 32925 ft 488 kts 76°
2026-05-06 14:23 51.96071 1.42250 33287 ft 490 kts 76°
2026-05-06 14:24 51.96872 1.47636 33627 ft 492 kts 76°
2026-05-06 14:24 51.97667 1.52980 33948 ft 494 kts 76°
2026-05-06 14:24 51.98474 1.58414 34266 ft 495 kts 76°
2026-05-06 14:24 51.99280 1.63854 34616 ft 495 kts 76°
2026-05-06 14:25 52.00082 1.69295 34876 ft 497 kts 77°
2026-05-06 14:25 52.00883 1.74758 34958 ft 495 kts 77°
2026-05-06 14:25 52.02451 1.85511 34959 ft 487 kts 77°
2026-05-06 14:26 52.03990 1.96146 34956 ft 487 kts 77°
2026-05-06 14:26 52.05535 2.06894 34955 ft 489 kts 77°
2026-05-06 14:27 52.07072 2.17665 34954 ft 489 kts 77°
2026-05-06 14:27 52.08598 2.28434 34952 ft 489 kts 77°
2026-05-06 14:28 52.10113 2.39200 34950 ft 489 kts 77°
2026-05-06 14:28 52.11623 2.49997 34947 ft 489 kts 78°
2026-05-06 14:29 52.13479 2.60578 34945 ft 489 kts 72°
2026-05-06 14:29 52.15614 2.71117 34945 ft 490 kts 72°
2026-05-06 14:30 52.17694 2.81687 34947 ft 490 kts 73°
2026-05-06 14:30 52.19710 2.92315 34948 ft 490 kts 73°
2026-05-06 14:31 52.21682 3.02883 34936 ft 490 kts 74°
2026-05-06 14:31 52.23643 3.13568 34937 ft 490 kts 76°
2026-05-06 14:32 52.24407 3.24543 34937 ft 487 kts 94°
2026-05-06 14:32 52.22981 3.35265 34935 ft 483 kts 111°
2026-05-06 14:33 52.20590 3.45527 34919 ft 483 kts 114°
2026-05-06 14:33 52.18094 3.55673 34918 ft 481 kts 114°
2026-05-06 14:34 52.15629 3.65733 34917 ft 481 kts 113°
2026-05-06 14:34 52.13164 3.75870 34910 ft 481 kts 114°
2026-05-06 14:35 52.10696 3.86007 34906 ft 481 kts 113°
2026-05-06 14:35 52.08222 3.96124 34896 ft 481 kts 114°
2026-05-06 14:36 52.05766 4.06121 34899 ft 478 kts 114°
2026-05-06 14:36 52.03290 4.16146 34887 ft 478 kts 114°
2026-05-06 14:37 52.00803 4.26170 34884 ft 478 kts 114°
2026-05-06 14:37 51.98310 4.36173 34885 ft 478 kts 114°
2026-05-06 14:38 51.95808 4.46169 34876 ft 478 kts 114°
2026-05-06 14:38 51.93304 4.56129 34884 ft 476 kts 114°
2026-05-06 14:39 51.90797 4.66055 34882 ft 476 kts 114°
2026-05-06 14:39 51.88279 4.75980 34876 ft 476 kts 114°
2026-05-06 14:40 51.85770 4.85826 34883 ft 476 kts 114°
2026-05-06 14:40 51.83237 4.95724 34880 ft 475 kts 114°
2026-05-06 14:41 51.80702 5.05586 34880 ft 475 kts 114°
2026-05-06 14:41 51.78158 5.15451 34882 ft 475 kts 114°
2026-05-06 14:42 51.75610 5.25300 34880 ft 475 kts 114°
2026-05-06 14:42 51.73065 5.35086 34873 ft 475 kts 115°
2026-05-06 14:43 51.70680 5.44201 34881 ft 475 kts 115°
2026-05-06 14:43 51.68101 5.53993 34879 ft 475 kts 115°
2026-05-06 14:44 51.65512 5.63792 34878 ft 475 kts 115°
2026-05-06 14:45 51.61638 5.78402 34895 ft 475 kts 115°
2026-05-06 14:45 51.59031 5.88180 34885 ft 475 kts 115°
2026-05-06 14:46 51.56416 5.97951 34886 ft 475 kts 115°
2026-05-06 14:46 51.53793 6.07706 34883 ft 475 kts 115°
2026-05-06 14:47 51.51161 6.17455 34887 ft 475 kts 115°
2026-05-06 14:47 51.48599 6.27231 34875 ft 476 kts 113°
2026-05-06 14:48 51.46212 6.37156 34876 ft 477 kts 113°
2026-05-06 14:48 51.43796 6.47056 34868 ft 477 kts 114°
2026-05-06 14:49 51.41368 6.56896 34853 ft 477 kts 114°
2026-05-06 14:49 51.38918 6.66769 34700 ft 472 kts 114°
2026-05-06 14:49 51.37703 6.71650 33945 ft 473 kts 114°
2026-05-06 14:50 51.36465 6.76599 32820 ft 480 kts 114°
2026-05-06 14:50 51.35233 6.81519 31894 ft 483 kts 114°
2026-05-06 14:50 51.33981 6.86513 31102 ft 482 kts 113°
2026-05-06 14:50 51.32740 6.91450 30459 ft 479 kts 113°
2026-05-06 14:51 51.31502 6.96367 29880 ft 474 kts 113°
2026-05-06 14:51 51.30271 7.01242 29165 ft 469 kts 113°
2026-05-06 14:51 51.29026 7.06071 28453 ft 465 kts 115°
2026-05-06 14:51 51.27502 7.10531 27765 ft 461 kts 125°
2026-05-06 14:52 51.25483 7.14482 27144 ft 454 kts 136°
2026-05-06 14:52 51.23077 7.17680 26858 ft 449 kts 147°
2026-05-06 14:52 51.20368 7.20177 26834 ft 447 kts 154°
2026-05-06 14:52 51.17618 7.22364 26838 ft 447 kts 155°
2026-05-06 14:53 51.14999 7.24417 26826 ft 447 kts 154°
2026-05-06 14:53 51.12197 7.26616 26830 ft 449 kts 154°
2026-05-06 14:53 51.09393 7.28860 26825 ft 450 kts 153°
2026-05-06 14:53 51.07549 7.30381 26826 ft 451 kts 153°
2026-05-06 14:54 51.04766 7.32687 26829 ft 451 kts 154°
2026-05-06 14:54 51.02016 7.34969 26421 ft 443 kts 153°
2026-05-06 14:54 50.98397 7.37954 25453 ft 442 kts 154°
2026-05-06 14:54 50.96549 7.39475 25070 ft 439 kts 154°
2026-05-06 14:55 50.93844 7.41700 24448 ft 436 kts 154°
2026-05-06 14:55 50.91187 7.43882 23805 ft 434 kts 154°
2026-05-06 14:55 50.88513 7.46076 23183 ft 431 kts 154°
2026-05-06 14:55 50.85861 7.48251 22488 ft 427 kts 154°
2026-05-06 14:56 50.83235 7.50400 21789 ft 424 kts 154°
2026-05-06 14:56 50.80615 7.52533 21094 ft 421 kts 155°
2026-05-06 14:56 50.78024 7.54640 20508 ft 416 kts 156°
2026-05-06 14:56 50.75473 7.56714 19906 ft 411 kts 156°
2026-05-06 14:57 50.72935 7.58776 19291 ft 407 kts 156°
2026-05-06 14:57 50.70427 7.60812 18697 ft 404 kts 156°
2026-05-06 14:57 50.67927 7.62846 18087 ft 400 kts 156°
2026-05-06 14:57 50.65458 7.64847 17404 ft 397 kts 156°
2026-05-06 14:58 50.63056 7.66786 16734 ft 394 kts 156°
2026-05-06 14:58 50.60620 7.68750 16070 ft 391 kts 155°
2026-05-06 14:58 50.58199 7.70705 15393 ft 388 kts 155°
2026-05-06 14:58 50.55806 7.72635 14776 ft 385 kts 155°
2026-05-06 14:59 50.53452 7.74526 14155 ft 382 kts 155°
2026-05-06 14:59 50.51089 7.76423 13529 ft 379 kts 155°
2026-05-06 14:59 50.48751 7.78300 12977 ft 374 kts 155°
2026-05-06 14:59 50.46432 7.80159 12537 ft 372 kts 155°
2026-05-06 15:00 50.44143 7.82033 11859 ft 370 kts 153°
2026-05-06 15:00 50.42026 7.84308 11244 ft 369 kts 145°
2026-05-06 15:00 50.40032 7.86776 10819 ft 359 kts 144°
2026-05-06 15:00 50.38132 7.89156 10572 ft 346 kts 144°
2026-05-06 15:01 50.36285 7.91459 10339 ft 334 kts 144°
2026-05-06 15:01 50.34502 7.93675 10098 ft 322 kts 144°
2026-05-06 15:01 50.32779 7.95811 9882 ft 310 kts 144°
2026-05-06 15:01 50.31114 7.97872 9681 ft 300 kts 144°
2026-05-06 15:02 50.29503 7.99864 9396 ft 292 kts 145°
2026-05-06 15:02 50.27918 8.01820 9013 ft 288 kts 145°
2026-05-06 15:02 50.26395 8.03848 8605 ft 288 kts 137°
2026-05-06 15:02 50.25103 8.06223 8205 ft 286 kts 131°
2026-05-06 15:03 50.23897 8.08674 7818 ft 284 kts 130°
2026-05-06 15:03 50.22698 8.11134 7347 ft 284 kts 130°
2026-05-06 15:03 50.21499 8.13582 7068 ft 282 kts 130°
2026-05-06 15:03 50.20305 8.16012 7001 ft 282 kts 131°
2026-05-06 15:04 50.19126 8.18403 6997 ft 282 kts 131°
2026-05-06 15:04 50.17942 8.20802 6811 ft 278 kts 131°
2026-05-06 15:04 50.16758 8.23199 6593 ft 279 kts 131°
2026-05-06 15:04 50.15572 8.25599 6369 ft 277 kts 131°
2026-05-06 15:05 50.14389 8.27983 6128 ft 275 kts 130°
2026-05-06 15:05 50.13240 8.30301 6018 ft 273 kts 130°
2026-05-06 15:05 50.12074 8.32649 6012 ft 275 kts 131°
2026-05-06 15:05 50.10954 8.35076 6013 ft 278 kts 123°
2026-05-06 15:06 50.10311 8.37918 6015 ft 282 kts 99°
2026-05-06 15:06 50.10475 8.40965 6014 ft 285 kts 75°
2026-05-06 15:06 50.11136 8.43902 5995 ft 286 kts 70°
2026-05-06 15:06 50.11857 8.46798 5995 ft 287 kts 70°
2026-05-06 15:07 50.12574 8.49716 6000 ft 287 kts 70°
2026-05-06 15:07 50.13277 8.52610 5713 ft 283 kts 70°
2026-05-06 15:07 50.13960 8.55450 5285 ft 285 kts 71°
2026-05-06 15:07 50.14652 8.58330 5031 ft 283 kts 71°
2026-05-06 15:08 50.15341 8.61213 5001 ft 283 kts 71°
2026-05-06 15:08 50.16025 8.64091 4986 ft 283 kts 71°
2026-05-06 15:08 50.16712 8.66978 5001 ft 284 kts 71°
2026-05-06 15:08 50.17401 8.69863 5002 ft 283 kts 71°
2026-05-06 15:09 50.18071 8.72743 4992 ft 283 kts 72°
2026-05-06 15:09 50.18733 8.75632 4954 ft 282 kts 71°
2026-05-06 15:09 50.19420 8.78496 4990 ft 282 kts 70°
2026-05-06 15:09 50.20112 8.81365 4991 ft 282 kts 71°
2026-05-06 15:10 50.20793 8.84242 4991 ft 283 kts 71°
2026-05-06 15:10 50.21476 8.87137 4991 ft 282 kts 71°
2026-05-06 15:10 50.22022 8.90063 4990 ft 281 kts 83°
2026-05-06 15:10 50.22002 8.93036 4992 ft 277 kts 104°
2026-05-06 15:11 50.21242 8.95648 4978 ft 254 kts 132°
2026-05-06 15:11 50.19937 8.97278 4981 ft 230 kts 158°
2026-05-06 15:11 50.18450 8.97867 4985 ft 217 kts 180°
2026-05-06 15:11 50.16972 8.97555 4990 ft 212 kts 199°
2026-05-06 15:12 50.15686 8.96643 4991 ft 194 kts 215°
2026-05-06 15:12 50.14740 8.95292 5000 ft 179 kts 231°
2026-05-06 15:12 50.14175 8.93567 5000 ft 180 kts 247°
2026-05-06 15:12 50.13733 8.91744 4995 ft 179 kts 248°
2026-05-06 15:13 50.13303 8.89926 4993 ft 179 kts 248°
2026-05-06 15:13 50.12870 8.88103 4988 ft 180 kts 248°
2026-05-06 15:13 50.12430 8.86266 4862 ft 181 kts 248°
2026-05-06 15:13 50.11989 8.84432 4637 ft 181 kts 249°
2026-05-06 15:14 50.11555 8.82603 4367 ft 179 kts 248°
2026-05-06 15:14 50.11127 8.80808 4084 ft 175 kts 249°
2026-05-06 15:14 50.10709 8.79051 3846 ft 175 kts 249°
2026-05-06 15:14 50.10284 8.77269 3591 ft 176 kts 249°
2026-05-06 15:15 50.09855 8.75470 3355 ft 178 kts 250°
2026-05-06 15:15 50.09425 8.73662 3111 ft 176 kts 250°
2026-05-06 15:15 50.09001 8.71886 2880 ft 174 kts 250°
2026-05-06 15:15 50.08591 8.70167 2640 ft 163 kts 250°
2026-05-06 15:16 50.08216 8.68600 2440 ft 145 kts 251°
2026-05-06 15:16 50.07881 8.67193 2249 ft 133 kts 251°
2026-05-06 15:16 50.07571 8.65889 2080 ft 125 kts 251°
2026-05-06 15:16 50.07268 8.64617 1907 ft 125 kts 251°
2026-05-06 15:17 50.06967 8.63353 1749 ft 124 kts 251°
2026-05-06 15:17 50.06664 8.62093 1588 ft 125 kts 253°
2026-05-06 15:17 50.06363 8.60827 1428 ft 125 kts 254°
2026-05-06 15:17 50.06062 8.59562 1240 ft 124 kts 253°
2026-05-06 15:18 50.05761 8.58303 1072 ft 124 kts 252°
2026-05-06 15:18 50.05465 8.57062 890 ft 125 kts 252°
2026-05-06 15:18 50.05161 8.55791 733 ft 125 kts 253°
2026-05-06 15:18 50.04853 8.54532 566 ft 123 kts 253°
2026-05-06 15:19 50.04559 8.53303 407 ft 122 kts 252°
2026-05-06 15:19 50.04238 8.51939 747 ft 153 kts 251°
2026-05-06 15:19 50.04134 8.50288 1796 ft 152 kts 274°
2026-05-06 15:19 50.04178 8.48571 2767 ft 164 kts 271°
2026-05-06 15:20 50.04221 8.46761 3677 ft 172 kts 270°
2026-05-06 15:20 50.04570 8.44910 4411 ft 188 kts 297°
2026-05-06 15:20 50.05557 8.43482 4852 ft 205 kts 324°
2026-05-06 15:20 50.06859 8.42317 4979 ft 224 kts 330°
2026-05-06 15:21 50.08377 8.41660 5013 ft 234 kts 356°
2026-05-06 15:21 50.10071 8.41973 5009 ft 254 kts
2026-05-06 15:21 50.11812 8.42537 4979 ft 256 kts
2026-05-06 15:21 50.13568 8.43103 5010 ft 259 kts
2026-05-06 15:22 50.15319 8.43652 5015 ft 260 kts
2026-05-06 15:22 50.17063 8.44428 4993 ft 263 kts 25°
2026-05-06 15:22 50.18389 8.46351 4992 ft 262 kts 61°
2026-05-06 15:22 50.19115 8.48950 4997 ft 262 kts 71°
2026-05-06 15:23 50.19729 8.51653 4992 ft 270 kts 72°
2026-05-06 15:23 50.20376 8.54470 4992 ft 281 kts 71°
2026-05-06 15:23 50.21053 8.57356 4991 ft 283 kts 71°
2026-05-06 15:23 50.21730 8.60204 4990 ft 284 kts 71°
2026-05-06 15:24 50.22425 8.63096 5002 ft 284 kts 71°
2026-05-06 15:24 50.23113 8.65985 4990 ft 284 kts 71°
2026-05-06 15:24 50.23801 8.68878 4987 ft 284 kts 70°
2026-05-06 15:24 50.24494 8.71766 4990 ft 282 kts 71°
2026-05-06 15:25 50.25185 8.74648 4990 ft 282 kts 70°
2026-05-06 15:25 50.25872 8.77522 4990 ft 283 kts 70°
2026-05-06 15:25 50.26497 8.80418 4990 ft 276 kts 78°
2026-05-06 15:25 50.26638 8.83281 4991 ft 254 kts 99°
2026-05-06 15:26 50.26116 8.85803 4999 ft 240 kts 125°
2026-05-06 15:26 50.24973 8.87592 5001 ft 231 kts 150°
2026-05-06 15:26 50.23594 8.88869 4999 ft 228 kts 155°
2026-05-06 15:26 50.22261 8.89986 4999 ft 213 kts 155°
2026-05-06 15:27 50.20998 8.91032 5016 ft 200 kts 156°
2026-05-06 15:27 50.19808 8.92019 5018 ft 191 kts 156°
2026-05-06 15:27 50.18632 8.92991 5008 ft 190 kts 156°
2026-05-06 15:27 50.17453 8.93937 4997 ft 189 kts 159°
2026-05-06 15:28 50.16221 8.94535 4994 ft 186 kts 178°
2026-05-06 15:28 50.14994 8.94155 5005 ft 181 kts 216°
2026-05-06 15:28 50.14165 8.92707 5010 ft 179 kts 237°
2026-05-06 15:28 50.13605 8.90972 5005 ft 180 kts 247°